TimeEEST,TemperatureF,Dew PointF,Humidity,Sea Level PressureIn,VisibilityMPH,Wind Direction,Wind SpeedMPH,Gust SpeedMPH,PrecipitationIn,Events,Conditions,WindDirDegrees,DateUTC
12:20 AM,73.4,44.6,36,29.65,-9999.0,North,4.6,-,N/A,,Clear,10,2013-08-17 21:20:00
12:50 AM,71.6,46.4,41,29.65,-9999.0,NE,6.9,-,N/A,,Clear,40,2013-08-17 21:50:00
1:20 AM,69.8,50.0,49,29.65,-9999.0,NNE,6.9,-,N/A,,Clear,20,2013-08-17 22:20:00
1:50 AM,69.8,50.0,49,29.65,-9999.0,NE,8.1,-,N/A,,Clear,40,2013-08-17 22:50:00
2:20 AM,68.0,55.4,64,29.65,-9999.0,Variable,2.3,-,N/A,,Clear,0,2013-08-17 23:20:00
2:50 AM,68.0,50.0,52,29.65,-9999.0,NE,5.8,-,N/A,,Clear,40,2013-08-17 23:50:00
3:20 AM,66.2,53.6,64,29.65,-9999.0,NNE,5.8,-,N/A,,Clear,20,2013-08-18 00:20:00
3:50 AM,66.2,51.8,60,29.65,-9999.0,NE,5.8,-,N/A,,Clear,40,2013-08-18 00:50:00
4:20 AM,64.4,51.8,64,29.65,-9999.0,NNE,5.8,-,N/A,,Clear,20,2013-08-18 01:20:00
5:20 AM,62.6,55.4,77,29.65,-9999.0,WNW,3.5,-,N/A,,Clear,300,2013-08-18 02:20:00
5:50 AM,62.6,53.6,72,29.65,-9999.0,Variable,2.3,-,N/A,,Clear,0,2013-08-18 02:50:00
6:20 AM,64.4,53.6,68,29.65,-9999.0,North,4.6,-,N/A,,Clear,360,2013-08-18 03:20:00
6:50 AM,68.0,53.6,60,29.65,-9999.0,Variable,4.6,-,N/A,,Clear,0,2013-08-18 03:50:00
7:20 AM,69.8,50.0,49,29.65,-9999.0,South,5.8,-,N/A,,Clear,180,2013-08-18 04:20:00
7:50 AM,80.6,44.6,28,29.65,-9999.0,Variable,1.2,-,N/A,,Clear,0,2013-08-18 04:50:00
8:20 AM,78.8,46.4,32,29.65,-9999.0,SW,5.8,-,N/A,,Clear,220,2013-08-18 05:20:00
8:50 AM,82.4,46.4,28,29.65,-9999.0,SSW,5.8,-,N/A,,Clear,210,2013-08-18 05:50:00
9:20 AM,86.0,44.6,23,29.65,-9999.0,Variable,3.5,-,N/A,,Clear,0,2013-08-18 06:20:00
9:50 AM,89.6,42.8,20,29.65,-9999.0,SW,4.6,-,N/A,,Clear,220,2013-08-18 06:50:00
10:20 AM,91.4,42.8,18,29.65,-9999.0,South,4.6,-,N/A,,Clear,190,2013-08-18 07:20:00
10:50 AM,93.2,42.8,17,29.65,-9999.0,WSW,5.8,-,N/A,,Clear,240,2013-08-18 07:50:00
11:20 AM,95.0,42.8,16,29.65,-9999.0,SW,6.9,-,N/A,,Clear,230,2013-08-18 08:20:00
11:50 AM,96.8,42.8,16,29.65,-9999.0,SW,8.1,-,N/A,,Clear,230,2013-08-18 08:50:00
12:20 PM,98.6,42.8,15,29.62,-9999.0,SW,9.2,-,N/A,,Clear,220,2013-08-18 09:20:00
12:50 PM,98.6,39.2,13,29.62,-9999.0,WSW,11.5,-,N/A,,Clear,240,2013-08-18 09:50:00
1:20 PM,100.4,35.6,11,29.62,-9999.0,WSW,10.4,-,N/A,,Clear,250,2013-08-18 10:20:00
1:50 PM,100.4,32.0,9,29.59,-9999.0,WSW,13.8,-,N/A,,Clear,250,2013-08-18 10:50:00
2:20 PM,100.4,35.6,11,29.59,-9999.0,WSW,15.0,-,N/A,,Clear,240,2013-08-18 11:20:00
2:50 PM,100.4,37.4,11,29.59,-9999.0,West,12.7,-,N/A,,Clear,280,2013-08-18 11:50:00
3:20 PM,102.2,39.2,11,29.59,-9999.0,West,15.0,-,N/A,,Clear,260,2013-08-18 12:20:00
3:50 PM,102.2,39.2,11,29.59,-9999.0,West,9.2,-,N/A,,Clear,260,2013-08-18 12:50:00
4:20 PM,102.2,37.4,11,29.56,-9999.0,WSW,11.5,-,N/A,,Clear,240,2013-08-18 13:20:00
4:50 PM,100.4,37.4,11,29.56,-9999.0,SSW,10.4,-,N/A,,Clear,210,2013-08-18 13:50:00
5:20 PM,100.4,39.2,12,29.56,-9999.0,SW,10.4,-,N/A,,Clear,230,2013-08-18 14:20:00
5:50 PM,98.6,41.0,14,29.56,-9999.0,SW,5.8,-,N/A,,Clear,220,2013-08-18 14:50:00
6:20 PM,95.0,44.6,18,29.56,-9999.0,SW,3.5,-,N/A,,Clear,230,2013-08-18 15:20:00
6:50 PM,93.2,44.6,19,29.56,-9999.0,West,3.5,-,N/A,,Clear,260,2013-08-18 15:50:00
7:20 PM,91.4,44.6,20,29.56,-9999.0,West,4.6,-,N/A,,Clear,270,2013-08-18 16:20:00
7:50 PM,89.6,41.0,18,29.59,-9999.0,Variable,2.3,-,N/A,,Clear,0,2013-08-18 16:50:00
8:20 PM,86.0,44.6,23,29.59,-9999.0,South,3.5,-,N/A,,Clear,170,2013-08-18 17:20:00
8:50 PM,84.2,50.0,30,29.59,-9999.0,WSW,3.5,-,N/A,,Clear,240,2013-08-18 17:50:00
9:20 PM,84.2,46.4,27,29.62,-9999.0,Variable,2.3,-,N/A,,Clear,0,2013-08-18 18:20:00
9:50 PM,84.2,46.4,27,29.62,-9999.0,Variable,2.3,-,N/A,,Clear,0,2013-08-18 18:50:00
10:20 PM,82.4,46.4,28,29.59,-9999.0,SSE,3.5,-,N/A,,Clear,160,2013-08-18 19:20:00
10:50 PM,84.2,46.4,27,29.59,-9999.0,SE,3.5,-,N/A,,Clear,140,2013-08-18 19:50:00
11:20 PM,80.6,46.4,30,29.59,-9999.0,South,5.8,-,N/A,,Clear,170,2013-08-18 20:20:00
11:50 PM,77.0,50.0,39,29.59,-9999.0,Variable,1.2,-,N/A,,Clear,0,2013-08-18 20:50:00